Location: Brno
(49.2000°N, 16.6330°E)
Time: 03:36:53
(UTC+02:00)

Vanguard 3 - Pass Details

Date: 09 August 2021
Orbit: 510 x 3260 km, 33.3° (Epoch: 16 September)

Event Time Altitude Azimuth Distance (km) Brightness Sun altitude
Rises 18:56:21 0° 253° (WSW) 5,038 12.4 12.2°
Reaches altitude 10° 18:59:25 10° 246° (WSW) 4,375 12.0 11.7°
Maximum altitude 19:11:17 43° 182° (S) 3,435 10.4 9.8°
Drops below altitude 10° 19:28:18 10° 120° (ESE) 6,163 11.0 7.1°
Sets 19:33:38 0° 115° (ESE) 7,222 11.3 6.3°
